Burley, ID

5:22 PM MDT on May 23, 2018 (GMT -0600)
Burley Municipal

Weather History for KBYI - January, 2013

Change the Weather History Date:

Wednesday, January 30, 2013

  Actual Average Record
Temperature  
Mean Temperature 37 °F 28 °F  
Max Temperature 42 °F 36 °F 61 °F (2018)
Min Temperature 31 °F 20 °F -17 °F (1979)
Degree Days  
Heating Degree Days 28 37  
Month to date heating degree days 1473 1148  
Since 1 July heating degree days 3820 4028  
Cooling Degree Days 0 0  
Month to date cooling degree days 0 0  
Year to date cooling degree days 0 0  
Moisture  
Dew Point 31 °F    
Average Humidity 83    
Maximum Humidity 96    
Minimum Humidity 70    
Precipitation  
Precipitation 0.00 in 0.03 in 0.67 in (1963)
Month to date precipitation 0.17 0.89  
Year to date precipitation 0.17 0.89  
Sea Level Pressure  
Sea Level Pressure 30.15 in    
Wind  
Wind Speed 21 mph (West)    
Max Wind Speed 30 mph    
Max Gust Speed 41 mph    
Visibility 10 miles    
Events Snow    
T = Trace of Precipitation, MM = Missing Value Source: NWS Daily Summary

Daily Weather History Graph

Daily Weather History Graph

Search for Another Location

Airport or City:

Astronomy

Jan. 30, 2013 Rise Set
Actual Time 7:50 AM MST 5:46 PM MST
Civil Twilight 7:20 AM MST 6:16 PM MST
Nautical Twilight 6:46 AM MST 6:50 PM MST
Astronomical Twilight 6:13 AM MST 7:23 PM MST
Moon 9:56 PM MST (1/30) 9:14 AM MST (1/30)
Length of Visible Light 10h 55m
Length of Day
9h 55m
Waning Gibbous, 87% of the Moon is Illuminated
Jan 30
Waning Gibbous
Feb 3
Last Quarter
Feb 10
New
Feb 17
First Quarter
Feb 25
Full

Hourly Weather History & Observations

Time (MST) Temp. Windchill Dew Point Humidity Pressure Visibility Wind Dir Wind Speed Gust Speed Precip Events Conditions
12:53 AM 32.0 °F 20.5 °F 27.0 °F 82% 30.16 in 10.0 mi WSW 18.4 mph 25.3 mph N/A   Partly Cloudy
1:53 AM 34.0 °F 23.8 °F 28.9 °F 82% 30.14 in 10.0 mi West 16.1 mph 24.2 mph N/A   Overcast
2:53 AM 34.0 °F 22.7 °F 30.0 °F 85% 30.14 in 10.0 mi West 19.6 mph 29.9 mph N/A   Overcast
3:38 AM 33.8 °F 23.2 °F 30.2 °F 87% 30.09 in 10.0 mi West 17.3 mph 27.6 mph N/A   Overcast
3:53 AM 34.0 °F 22.4 °F 30.0 °F 85% 30.12 in 10.0 mi West 20.7 mph 28.8 mph N/A   Overcast
4:22 AM 33.8 °F 23.9 °F 30.2 °F 87% 30.09 in 8.0 mi West 15.0 mph 27.6 mph 0.00 in Snow Light Snow
4:53 AM 34.0 °F 24.2 °F 32.0 °F 92% 30.13 in 10.0 mi West 15.0 mph 23.0 mph 0.00 in   Overcast
5:53 AM 35.1 °F 24.1 °F 30.9 °F 85% 30.12 in 10.0 mi West 19.6 mph 31.1 mph 0.00 in Snow Light Snow
6:53 AM 36.0 °F 26.0 °F 30.9 °F 82% 30.13 in 10.0 mi West 17.3 mph 27.6 mph 0.00 in   Partly Cloudy
7:53 AM 35.1 °F 24.1 °F 30.9 °F 85% 30.14 in 10.0 mi West 19.6 mph 35.7 mph 0.00 in Snow Light Snow
8:53 AM 36.0 °F 23.7 °F 30.0 °F 79% 30.14 in 9.0 mi West 26.5 mph 35.7 mph 0.00 in Snow Light Snow
9:53 AM 37.0 °F 26.4 °F 30.9 °F 79% 30.16 in 9.0 mi West 20.7 mph 35.7 mph 0.00 in Snow Light Snow
10:53 AM 37.9 °F 26.6 °F 30.9 °F 76% 30.17 in 9.0 mi West 25.3 mph 34.5 mph 0.00 in Snow Light Snow
11:53 AM 39.9 °F 29.2 °F 32.0 °F 73% 30.16 in 10.0 mi West 25.3 mph 36.8 mph 0.00 in   Clear
12:53 PM 41.0 °F 31.1 °F 32.0 °F 70% 30.15 in 10.0 mi West 23.0 mph 33.4 mph N/A   Partly Cloudy
1:53 PM 42.1 °F 32.3 °F 33.1 °F 70% 30.13 in 10.0 mi West 24.2 mph 36.8 mph N/A   Clear
2:53 PM 41.0 °F 31.1 °F 33.1 °F 73% 30.14 in 10.0 mi West 23.0 mph 34.5 mph N/A   Clear
3:34 PM 39.2 °F 29.6 °F 32.0 °F 75% 30.13 in 10.0 mi West 19.6 mph 33.4 mph N/A   Mostly Cloudy
3:53 PM 39.9 °F 30.8 °F 32.0 °F 73% 30.16 in 10.0 mi West 18.4 mph 29.9 mph N/A   Overcast
4:13 PM 39.2 °F 29.8 °F 32.0 °F 75% 30.13 in 10.0 mi West 18.4 mph 28.8 mph N/A   Overcast
4:53 PM 39.0 °F 28.8 °F 32.0 °F 76% 30.15 in 10.0 mi West 21.9 mph 33.4 mph N/A   Mostly Cloudy
5:11 PM 39.2 °F 28.5 °F 32.0 °F 75% 30.12 in 10.0 mi WSW 24.2 mph 38.0 mph N/A   Scattered Clouds
5:53 PM 37.9 °F 26.8 °F 32.0 °F 79% 30.16 in 9.0 mi WSW 24.2 mph 34.5 mph 0.00 in Snow Light Snow
6:53 PM 37.0 °F 27.4 °F 32.0 °F 82% 30.18 in 10.0 mi West 17.3 mph 31.1 mph 0.00 in   Clear
7:53 PM 37.0 °F 26.2 °F 32.0 °F 82% 30.19 in 9.0 mi West 21.9 mph 32.2 mph 0.00 in   Clear
8:53 PM 36.0 °F 24.7 °F 32.0 °F 86% 30.19 in 10.0 mi West 21.9 mph 31.1 mph 0.00 in Snow Light Snow
9:53 PM 37.0 °F 27.0 °F 32.0 °F 82% 30.21 in 9.0 mi West 18.4 mph 29.9 mph 0.00 in Snow Light Snow
10:53 PM 37.0 °F 27.4 °F 32.0 °F 82% 30.20 in 9.0 mi West 17.3 mph 35.7 mph 0.00 in Snow Light Snow
11:53 PM 37.0 °F 26.7 °F 32.0 °F 82% 30.22 in 10.0 mi West 19.6 mph 28.8 mph 0.00 in   Clear